Regional Weather Roundup
Issued by NWS

Home | Current Version | Previous Version | Graphics & Text | Print | Product List | Glossary On
Versions: 1 2 3 4 5 6 7 8 9 10 11 12 13 14 15 16 17 18 19 20 21 22 23 24 25 26 27 28 29 30 31 32 33 34 35 36 37 38 39 40 41 42 43 44 45 46 47 48 49 50
000
ASUS43 KFSD 261710
RWRSD

WEATHER ROUNDUP FOR SOUTH DAKOTA
NATIONAL WEATHER SERVICE SIOUX FALLS SD
1200 PM CDT TUE JUL 26 2016

NOTE: "FAIR" INDICATES FEW OR NO CLOUDS BELOW 12,000 FEET WITH NO
SIGNIFICANT WEATHER AND/OR OBSTRUCTIONS TO VISIBILITY.


SDZ001>005-009-010-012>017-261800-
NORTHWEST AND NORTH CENTRAL SOUTH DAKOTA

CITY           SKY/WX    TMP DP  RH WIND       PRES   REMARKS
BUFFALO          N/A     69  63  81 N14       29.98R
FAITH            N/A     75  58  55 NE15      30.00R
MOBRIDGE       PTSUNNY   87  65  47 NW26G32   29.96F
$$

SDZ012>016-024>037-041>051-057-063-072>074-261800-
SOUTHWEST AND SOUTH CENTRAL SOUTH DAKOTA

CITY           SKY/WX    TMP DP  RH WIND       PRES   REMARKS
RAPID CTY ARPT MOSUNNY   76  59  55 S9        30.05S
PIERRE         CLOUDY    86  65  49 NW10G20   29.99F
CUSTER         SUNNY     74  48  39 E13G24    30.18S
ELLSWORTH AFB  MOSUNNY   77  57  51 S10       30.04
PHILIP         PTSUNNY   86  57  37 E21G26    29.96F
PINE RIDGE     SUNNY     81  64  56 E15G21    30.06F
WINNER         FAIR      89  64  43 SW10      30.04R
$$

SDZ004>011-016>023-039-040-261800-
NORTHEAST SOUTH DAKOTA

CITY           SKY/WX    TMP DP  RH WIND       PRES   REMARKS
ABERDEEN       CLOUDY    67  62  84 S16       30.00F
WATERTOWN      MOSUNNY   83  67  58 W9        30.05R
BROOKINGS      MOSUNNY   82  67  60 SW10      30.06S
SISSETON         N/A     79  66  64 W15       29.98R
$$

SDZ017-020-022-023-036>040-048>070-261800-
SOUTHEAST SOUTH DAKOTA

CITY           SKY/WX    TMP DP  RH WIND       PRES   REMARKS
SIOUX FALLS    MOSUNNY   83  64  52 S8        30.06F
HURON          SUNNY     85  67  54 S9        30.00F
CHAMBERLAIN    PTSUNNY   89  70  53 SW8       30.02S HX  95
MITCHELL       SUNNY     86  65  49 S10G17    30.03S
YANKTON        SUNNY     84  63  48 S13       30.03F
$$

ABBREVIATIONS USED IN REMARKS
   TC - TEMPERATURE IN CELSIUS
  WCI - WIND CHILL INDEX
   HX - HEAT INDEX
  VSB - VISIBILITY





USA.gov is the U.S. government's official web portal to all federal, state and local government web resources and services.